Almo, KY

8:31 AM CST on February 12, 2016 (GMT -0600)
Kyle-Oakley

Weather History for KCEY - June, 2013

Change the Weather History Date:

Wednesday, June 12, 2013

  Actual Average (KPAH) Record (KPAH)
Temperature  
Mean Temperature 83 °F 75 °F  
Max Temperature 91 °F 86 °F 98 °F (1953)
Min Temperature 75 °F 64 °F 50 °F (1980)
Degree Days  
Heating Degree Days 0 0  
Month to date heating degree days 0  
Since 1 June heating degree days 0  
Since 1 July heating degree days 4128  
Cooling Degree Days 18 10  
Month to date cooling degree days 102  
Year to date cooling degree days 274  
Since 1 June cooling degree days 102  
Growing Degree Days 33 (Base 50)    
Moisture  
Dew Point 72 °F    
Average Humidity 68    
Maximum Humidity 83    
Minimum Humidity 52    
Precipitation  
Precipitation 0.00 in 0.13 in 2.75 in (1958)
Month to date precipitation 1.62  
Year to date precipitation 22.84  
Snow  
Snow 0.00 in 0.00 in 0.00 in (2002)
Month to date snowfall 0.0  
Since 1 June snowfall 0.0  
Since 1 July snowfall 9.1  
Snow Depth -    
Sea Level Pressure  
Sea Level Pressure 29.96 in    
Wind  
Wind Speed 9 mph (SW)    
Max Wind Speed 18 mph    
Max Gust Speed 28 mph    
Visibility 10 miles    
Events      
T = Trace of Precipitation, MM = Missing Value Source: NWS Daily Summary

Daily Weather History Graph

Daily Weather History Graph

Search for Another Location

Airport or City:

Trip Planner

Search our weather history database for the weather conditions in past years. The results will help you decide how hot, cold, wet, or windy it might be!

Date:

Astronomy

Jun. 12, 2013 Rise Set
Actual Time 5:34 AM CDT 8:12 PM CDT
Civil Twilight 5:03 AM CDT 8:43 PM CDT
Nautical Twilight 4:25 AM CDT 9:21 PM CDT
Astronomical Twilight 3:43 AM CDT 10:03 PM CDT
Moon 9:08 AM CDT 10:53 PM CDT
Length of Visible Light 15h 39m
Length of Day
14h 38m
Waxing Crescent, 14% of the Moon is Illuminated
Jun 12
Waxing Crescent
Jun 16
First Quarter
Jun 23
Full
Jun 29
Last Quarter
Jul 8
New

Hourly Weather History & Observations

Time (CDT) Temp. Heat Index Dew Point Humidity Pressure Visibility Wind Dir Wind Speed Gust Speed Precip Events Conditions
12:15 AM 80.6 °F 84.6 °F 71.6 °F 74% 29.98 in 10.0 mi SSW 4.6 mph - N/A   Clear
12:35 AM 78.8 °F - 71.6 °F 78% 29.98 in 10.0 mi SW 6.9 mph - N/A   Clear
12:55 AM 80.6 °F 84.6 °F 71.6 °F 74% 29.97 in 10.0 mi SW 9.2 mph - N/A   Clear
1:15 AM 80.6 °F 84.6 °F 71.6 °F 74% 29.97 in 10.0 mi SW 8.1 mph - N/A   Clear
1:35 AM 78.8 °F - 71.6 °F 78% 29.97 in 10.0 mi SW 8.1 mph - N/A   Clear
1:55 AM 78.8 °F - 71.6 °F 78% 29.97 in 10.0 mi SW 9.2 mph - N/A   Clear
2:15 AM 78.8 °F - 71.6 °F 78% 29.96 in 10.0 mi SW 10.4 mph - N/A   Clear
2:35 AM 78.8 °F - 69.8 °F 74% 29.96 in 10.0 mi SW 11.5 mph - N/A   Clear
2:55 AM 78.8 °F - 69.8 °F 74% 29.96 in 10.0 mi WSW 10.4 mph - N/A   Clear
3:15 AM 77.0 °F - 69.8 °F 78% 29.96 in 10.0 mi SW 8.1 mph - N/A   Clear
3:35 AM 77.0 °F - 69.8 °F 78% 29.96 in 10.0 mi SW 8.1 mph - N/A   Clear
3:55 AM 77.0 °F - 69.8 °F 78% 29.97 in 10.0 mi SW 6.9 mph - N/A   Clear
4:15 AM 75.2 °F - 69.8 °F 83% 29.97 in 10.0 mi SW 6.9 mph - N/A   Clear
4:35 AM 75.2 °F - 69.8 °F 83% 29.97 in 10.0 mi SW 6.9 mph - N/A   Clear
4:55 AM 75.2 °F - 69.8 °F 83% 29.98 in 10.0 mi SW 5.8 mph - N/A   Clear
5:15 AM 75.2 °F - 69.8 °F 83% 29.99 in 10.0 mi SW 5.8 mph - N/A   Clear
5:35 AM 75.2 °F - 69.8 °F 83% 29.99 in 10.0 mi SW 8.1 mph - N/A   Clear
5:55 AM 75.2 °F - 69.8 °F 83% 30.00 in 10.0 mi SW 8.1 mph - N/A   Clear
6:15 AM 75.2 °F - 69.8 °F 83% 30.00 in 10.0 mi SW 8.1 mph - N/A   Clear
6:35 AM 75.2 °F - 69.8 °F 83% 30.01 in 10.0 mi WSW 6.9 mph - N/A   Clear
6:55 AM 77.0 °F - 71.6 °F 83% 30.01 in 10.0 mi WSW 9.2 mph - N/A   Clear
7:15 AM 77.0 °F - 71.6 °F 83% 30.02 in 10.0 mi WSW 6.9 mph - N/A   Clear
7:35 AM 78.8 °F - 71.6 °F 78% 30.02 in 10.0 mi WSW 8.1 mph - N/A   Clear
7:55 AM 80.6 °F 84.6 °F 71.6 °F 74% 30.03 in 10.0 mi WSW 10.4 mph - N/A   Clear
8:15 AM 80.6 °F 84.6 °F 71.6 °F 74% 30.04 in 10.0 mi WSW 12.7 mph - N/A   Clear
8:35 AM 82.4 °F 88.2 °F 73.4 °F 74% 30.04 in 10.0 mi WSW 9.2 mph - N/A   Clear
8:55 AM 84.2 °F 90.9 °F 73.4 °F 70% 30.04 in 10.0 mi WSW 11.5 mph - N/A   Clear
9:15 AM 84.2 °F 90.9 °F 73.4 °F 70% 30.05 in 10.0 mi WSW 10.4 mph - N/A   Clear
9:35 AM 84.2 °F 89.6 °F 71.6 °F 66% 30.05 in 10.0 mi West 12.7 mph - N/A   Clear
9:55 AM 86.0 °F 93.4 °F 73.4 °F 66% 30.05 in 10.0 mi West 11.5 mph 16.1 mph N/A   Clear
10:15 AM 84.2 °F 90.9 °F 73.4 °F 70% 30.05 in 10.0 mi West 12.7 mph - N/A   Clear
10:35 AM 86.0 °F 93.4 °F 73.4 °F 66% 30.04 in 10.0 mi West 10.4 mph 19.6 mph N/A   Clear
10:55 AM 86.0 °F 93.4 °F 73.4 °F 66% 30.04 in 10.0 mi West 10.4 mph 19.6 mph N/A   Clear
11:15 AM 87.8 °F 95.6 °F 73.4 °F 62% 30.04 in 10.0 mi WSW 11.5 mph - N/A   Partly Cloudy
11:35 AM 89.6 °F 98.2 °F 73.4 °F 59% 30.03 in 10.0 mi WSW 11.5 mph - N/A   Partly Cloudy
11:55 AM 89.6 °F 98.2 °F 73.4 °F 59% 30.02 in 10.0 mi West 13.8 mph - N/A   Clear
12:15 PM 89.6 °F 98.2 °F 73.4 °F 59% 30.02 in 10.0 mi WSW 13.8 mph 20.7 mph N/A   Clear
12:35 PM 89.6 °F 98.2 °F 73.4 °F 59% 30.01 in 10.0 mi West 12.7 mph - N/A   Partly Cloudy
12:55 PM 91.4 °F 100.1 °F 73.4 °F 55% 30.00 in 10.0 mi WSW 11.5 mph - N/A   Scattered Clouds
1:15 PM 91.4 °F 100.1 °F 73.4 °F 55% 29.99 in 10.0 mi SW 11.5 mph 18.4 mph N/A   Mostly Cloudy
1:35 PM 91.4 °F 100.1 °F 73.4 °F 55% 29.98 in 10.0 mi WSW 13.8 mph 21.9 mph N/A   Scattered Clouds
1:55 PM 91.4 °F 100.1 °F 73.4 °F 55% 29.97 in 10.0 mi SW 11.5 mph 21.9 mph N/A   Partly Cloudy
2:15 PM 91.4 °F 100.1 °F 73.4 °F 55% 29.96 in 10.0 mi WSW 12.7 mph 19.6 mph N/A   Clear
2:35 PM 91.4 °F 100.1 °F 73.4 °F 55% 29.96 in 10.0 mi WSW 17.3 mph 24.2 mph N/A   Partly Cloudy
2:55 PM 91.4 °F 100.1 °F 73.4 °F 55% 29.95 in 10.0 mi SW 15.0 mph 20.7 mph N/A   Partly Cloudy
3:15 PM 91.4 °F 100.1 °F 73.4 °F 55% 29.94 in 10.0 mi WSW 12.7 mph 21.9 mph N/A   Mostly Cloudy
3:35 PM 91.4 °F 100.1 °F 73.4 °F 55% 29.93 in 10.0 mi SW 11.5 mph 19.6 mph N/A   Mostly Cloudy
3:55 PM 91.4 °F 100.1 °F 73.4 °F 55% 29.92 in 10.0 mi SW 15.0 mph 23.0 mph N/A   Partly Cloudy
4:15 PM 91.4 °F 98.4 °F 71.6 °F 52% 29.92 in 10.0 mi SW 15.0 mph 21.9 mph N/A   Clear
4:35 PM 91.4 °F 98.4 °F 71.6 °F 52% 29.91 in 10.0 mi SW 17.3 mph 25.3 mph N/A   Partly Cloudy
4:55 PM 91.4 °F 98.4 °F 71.6 °F 52% 29.90 in 10.0 mi SW 13.8 mph 25.3 mph N/A   Clear
5:15 PM 91.4 °F 98.4 °F 71.6 °F 52% 29.89 in 10.0 mi SW 15.0 mph 27.6 mph N/A   Clear
5:35 PM 91.4 °F 98.4 °F 71.6 °F 52% 29.88 in 10.0 mi SW 16.1 mph 24.2 mph N/A   Clear
5:55 PM 89.6 °F 96.2 °F 71.6 °F 55% 29.88 in 10.0 mi WSW 18.4 mph 21.9 mph N/A   Clear
6:15 PM 89.6 °F 96.2 °F 71.6 °F 55% 29.88 in 10.0 mi SW 15.0 mph 24.2 mph N/A   Clear
6:35 PM 89.6 °F 96.2 °F 71.6 °F 55% 29.88 in 10.0 mi SW 11.5 mph 18.4 mph N/A   Clear
6:55 PM 89.6 °F 96.2 °F 71.6 °F 55% 29.88 in 10.0 mi SW 12.7 mph 16.1 mph N/A   Clear
7:15 PM 86.0 °F 91.8 °F 71.6 °F 62% 29.87 in 10.0 mi SW 8.1 mph - N/A   Clear
7:35 PM 86.0 °F 91.8 °F 71.6 °F 62% 29.87 in 10.0 mi SW 8.1 mph - N/A   Clear
7:55 PM 86.0 °F 91.8 °F 71.6 °F 62% 29.87 in 10.0 mi SW 10.4 mph - N/A   Clear
8:15 PM 84.2 °F 89.6 °F 71.6 °F 66% 29.87 in 10.0 mi SW 9.2 mph 16.1 mph N/A   Clear
8:35 PM 84.2 °F 89.6 °F 71.6 °F 66% 29.87 in 10.0 mi SSW 8.1 mph 16.1 mph N/A   Clear
8:55 PM 84.2 °F 89.6 °F 71.6 °F 66% 29.88 in 10.0 mi SSW 6.9 mph - N/A   Clear
9:15 PM 82.4 °F 87.2 °F 71.6 °F 70% 29.87 in 10.0 mi SSW 6.9 mph - N/A   Clear
9:35 PM 82.4 °F 87.2 °F 71.6 °F 70% 29.87 in 10.0 mi SW 10.4 mph - N/A   Clear
9:55 PM 82.4 °F 88.2 °F 73.4 °F 74% 29.88 in 10.0 mi SW 9.2 mph - N/A   Clear
10:15 PM 82.4 °F 88.2 °F 73.4 °F 74% 29.88 in 10.0 mi SW 11.5 mph 16.1 mph N/A   Clear
10:35 PM 82.4 °F 88.2 °F 73.4 °F 74% 29.88 in 10.0 mi SW 9.2 mph - N/A   Clear
10:55 PM 82.4 °F 88.2 °F 73.4 °F 74% 29.88 in 10.0 mi SW 10.4 mph 17.3 mph N/A   Clear
11:15 PM 80.6 °F 85.4 °F 73.4 °F 79% 29.88 in 10.0 mi SW 11.5 mph - N/A   Clear
11:35 PM 80.6 °F 84.6 °F 71.6 °F 74% 29.88 in 10.0 mi SW 10.4 mph 18.4 mph N/A   Clear
11:55 PM 80.6 °F 84.6 °F 71.6 °F 74% 29.88 in 10.0 mi SW 11.5 mph 19.6 mph N/A   Clear